Weather History for KAVL - March, 2014

Change the Weather History Date:

Wednesday, March 12, 2014

  Actual Average Record
Temperature  
Mean Temperature 51 °F 46 °F  
Max Temperature 71 °F 57 °F 83 °F (1911)
Min Temperature 30 °F 35 °F 14 °F (1998)
Degree Days  
Heating Degree Days 14 19  
Month to date heating degree days 231 243  
Since 1 July heating degree days 3550 3460  
Cooling Degree Days 0 0  
Month to date cooling degree days 0 0  
Year to date cooling degree days 0 0  
Growing Degree Days 2 (Base 50)    
Moisture  
Dew Point 42 °F    
Average Humidity 65    
Maximum Humidity 93    
Minimum Humidity 37    
Precipitation  
Precipitation T in 0.12 in 4.17 in (1968)
Month to date precipitation 0.78 1.48  
Year to date precipitation 6.13 8.91  
Snow  
Snow T in 0.00 in 4.00 in (1993)
Month to date snowfall T 0.8  
Since 1 July snowfall 9.4 8.1  
Snow Depth 0.00 in    
Sea Level Pressure  
Sea Level Pressure 29.56 in    
Wind  
Wind Speed 16 mph (West)    
Max Wind Speed 36 mph    
Max Gust Speed 47 mph    
Visibility 9 miles    
Events Rain , Snow    
T = Trace of Precipitation, MM = Missing Value Source: NWS Daily Summary

Daily Weather History Graph

Daily Weather History Graph

Search for Another Location

Airport or City:

Trip Planner

Search our weather history database for the weather conditions in past years. The results will help you decide how hot, cold, wet, or windy it might be!

Date:

Astronomy

Mar. 12, 2014 Rise Set
Actual Time 7:45 AM EDT 7:35 PM EDT
Civil Twilight 7:19 AM EDT 8:00 PM EDT
Nautical Twilight 6:50 AM EDT 8:30 PM EDT
Astronomical Twilight 6:20 AM EDT 8:59 PM EDT
Moon 4:10 PM EDT (3/12) 5:09 AM EDT (3/12)
Length of Visible Light 12h 40m
Length of Day
11h 50m
Waxing Gibbous, 85% of the Moon is Illuminated
Mar 12
Waxing Gibbous
Mar 16
Full
Mar 23
Last Quarter
Mar 30
New
Apr 7
First Quarter

Hourly Weather History & Observations

Time (EDT) Temp. Windchill Dew Point Humidity Pressure Visibility Wind Dir Wind Speed Gust Speed Precip Events Conditions
12:54 AM 54.0 °F - 43.0 °F 66% 29.67 in 10.0 mi Calm Calm - N/A   Clear
1:54 AM 55.0 °F - 43.0 °F 64% 29.65 in 10.0 mi Calm Calm - N/A   Scattered Clouds
2:54 AM 57.9 °F - 44.1 °F 60% 29.60 in 10.0 mi East 3.5 mph - N/A   Clear
3:54 AM 62.1 °F - 48.0 °F 60% 29.57 in 9.0 mi SSW 12.7 mph 21.9 mph N/A   Clear
4:54 AM 60.1 °F - 51.1 °F 72% 29.55 in 9.0 mi SSW 19.6 mph 26.5 mph N/A   Overcast
5:54 AM 57.9 °F - 51.1 °F 78% 29.53 in 8.0 mi South 10.4 mph - N/A   Overcast
6:54 AM 55.9 °F - 52.0 °F 87% 29.52 in 8.0 mi South 10.4 mph - N/A   Overcast
7:54 AM 55.9 °F - 53.1 °F 90% 29.51 in 9.0 mi South 12.7 mph - N/A   Overcast
8:31 AM 57.2 °F - 53.6 °F 88% 29.55 in 10.0 mi South 13.8 mph 21.9 mph 0.00 in   Overcast
8:51 AM 57.2 °F - 53.6 °F 88% 29.56 in 10.0 mi South 11.5 mph - 0.00 in   Overcast
8:54 AM 57.0 °F - 53.1 °F 87% 29.51 in 10.0 mi South 10.4 mph - 0.00 in   Overcast
9:17 AM 57.2 °F - 53.6 °F 88% 29.55 in 10.0 mi SSW 12.7 mph - N/A   Overcast
9:54 AM 57.9 °F - 54.0 °F 87% 29.49 in 10.0 mi South 9.2 mph 18.4 mph N/A   Overcast
10:02 AM 57.2 °F - 53.6 °F 88% 29.53 in 10.0 mi SSW 12.7 mph - N/A   Overcast
10:23 AM 57.2 °F - 53.6 °F 88% 29.52 in 10.0 mi SSW 12.7 mph - N/A   Overcast
10:54 AM 60.1 °F - 54.0 °F 80% 29.46 in 10.0 mi SSW 13.8 mph - N/A   Overcast
11:54 AM 61.0 °F - 54.0 °F 78% 29.44 in 10.0 mi SW 10.4 mph 19.6 mph N/A   Overcast
12:54 PM 64.9 °F - 52.0 °F 63% 29.41 in 10.0 mi SW 6.9 mph - 0.00 in   Mostly Cloudy
1:54 PM 69.1 °F - 44.1 °F 40% 29.37 in 10.0 mi WNW 10.4 mph 24.2 mph N/A   Mostly Cloudy
2:54 PM 69.1 °F - 44.1 °F 40% 29.33 in 10.0 mi West 9.2 mph 19.6 mph N/A   Overcast
3:54 PM 68.0 °F - 41.0 °F 37% 29.35 in 10.0 mi NW 18.4 mph 38.0 mph N/A   Mostly Cloudy
4:54 PM 61.0 °F - 39.0 °F 44% 29.41 in 10.0 mi WSW 17.3 mph 38.0 mph 0.00 in   Scattered Clouds
5:21 PM 51.8 °F - 37.4 °F 58% 29.51 in 10.0 mi North 20.7 mph 36.8 mph N/A   Overcast
5:54 PM 46.0 °F 37.0 °F 34.0 °F 63% 29.54 in 10.0 mi NNW 27.6 mph 38.0 mph N/A   Overcast
6:15 PM 42.8 °F 32.7 °F 32.0 °F 66% 29.59 in 10.0 mi NNW 27.6 mph 40.3 mph N/A   Overcast
6:54 PM 43.0 °F 34.2 °F 30.0 °F 60% 29.58 in 10.0 mi NNW 20.7 mph 34.5 mph N/A   Overcast
7:54 PM 39.0 °F 27.4 °F 30.0 °F 70% 29.62 in 10.0 mi NNW 28.8 mph 38.0 mph 0.00 in Rain Light Rain
8:54 PM 37.9 °F 27.1 °F 28.9 °F 70% 29.65 in 9.0 mi NNW 23.0 mph 40.3 mph 0.00 in Snow Light Snow
9:36 PM 35.6 °F 25.9 °F 30.2 °F 81% 29.70 in 4.0 mi NNW 16.1 mph 28.8 mph 0.00 in Snow Light Snow
9:54 PM 36.0 °F 26.3 °F 28.9 °F 76% 29.69 in 6.0 mi NW 16.1 mph 24.2 mph 0.00 in Snow Light Snow
10:18 PM 37.4 °F 27.8 °F 26.6 °F 65% 29.71 in 10.0 mi NNW 17.3 mph 31.1 mph 0.00 in   Overcast
10:36 PM 33.8 °F 22.8 °F 28.4 °F 81% 29.73 in 3.0 mi NW 18.4 mph 33.4 mph 0.00 in Snow Light Snow
10:54 PM 34.0 °F 25.5 °F 27.0 °F 75% 29.73 in 9.0 mi NW 11.5 mph 20.7 mph 0.00 in   Overcast
11:02 PM 35.6 °F 24.8 °F 24.8 °F 65% 29.74 in 10.0 mi NNW 19.6 mph 33.4 mph N/A   Overcast
11:54 PM 34.0 °F 22.1 °F 23.0 °F 64% 29.76 in 7.0 mi NNW 21.9 mph 28.8 mph 0.00 in Snow Light Snow